shoulder
new_line
new_line
first
second
third
Al di la della Luna; Beyond the Moon; Astrophotography; Astrofotografia; Danilo Pivato
 
 
         
         
2018

Orbital Elements

Epoch 2018 Nov. 18.0 TT = JDT 2458440.5
T 2018 Nov. 3.89469 TT                                         MPCW
q   1.3931901            (2000.0)            P               Q
n   0.10470608     Peri.   97.15130     +0.78661189     -0.60257276
a   4.4581511      Node   299.99735     +0.48712092     +0.73969650
e   0.6874960      Incl.    8.94869     +0.37941396     +0.29959165
P   9.41        
 
         
         
2018.08.18
 
         
         
       
       
         
         
         

 

       
 
Since: 01/01/2004
 
       
 
Since: 01/11/2010